sat.trackr.live / text

‹ back to catalog

STARLINK-37769

NORAD 69834 · 2026-154R

PAYLOAD ACTIVE UNKNOWN

§ Identity

Operator
Country
US
Launch date
2026-07-05
Launch site
AFETR
Launch vehicle
Mass (kg)
RCS (m²)

Purposes: comms

External: N2YO · Heavens-Above · Gunter

§ Orbital elements

Epoch: 2026-09-19T22:32:22.267104Z

Period
93.85 min
Inclination
53.1604°
Eccentricity
0.0000946
Mean motion
15.34406446 rev/d
Perigee alt
462.0 km
Apogee alt
463.3 km
Semi-major
6,840.8 km
B*
5.5124e-4
RAAN
334.2342°
Arg perigee
301.0425°
Mean anomaly
59.0485°
Rev number
1,315

§ Raw data

STARLINK-377691 69834U 26154R   26262.93914661  .00018298  00000+0  55124-3 0  99922 69834  53.1604 334.2342 0000946 301.0425  59.0485 15.34406446 13154

JSON: /api/v1/satellites/69834 · /tle

For live sub-satellite position, see the globe view (requires WebGL).

§ Visibility from observer

Set your observer location to see the next 7 days of passes ≥ 10°. The values pass through the URL so the page stays shareable.

No JS? Fill the form by hand. The geolocation button needs JavaScript.